STARLINK-34199, 64924

Orbit data source: Space-Track

STARLINK-34199, 64924 is a payload satellite owned by SpaceX/Seattle (US) in LEO that was launched on Sat, 26 Jul 2025 UTC via an FALCON 9 launch vehicle from the Air Force Eastern Test Range (AFETR). Payload-class satellites include a variety of spacecraft equipped with specific instruments for various scientific and technological missions. These include communications satellites like Starlink; space stations such as the ISS; scientific satellites like the Hubble; Earth observation satellites from companies like Planet Labs, Umbra, and HawkEye 360; GPS; miniature CubeSats for education and research; and military/defense satellites.

Loading next visibility...
Identifier
64924, 2025-157W
Orbit
LEO
Country
Flag of USUS
Related business
Manufacturer
SpaceX/Seattle
Mission
Operational Commercial Communications
Bus & Motor
STARLINK V2MO, Unknown motor
Mass
575 kg wet, ~530 kg dry
Launch date (UTC)
2025-07-26 (4 months ago)
Launch vehicle
FALCON 9
Launch site
Air Force Eastern Test Range (AFETR)
Object type
Payload
Rocket body
Debris
Shape & HBR
Box + 2 Pan, 17.7 m
Radar Cross Section
36.964 m², Large (>1 m²)

Expand to show TLE details & history
Last TLE update: 2 days ago

TLE from 2 days ago
0 STARLINK-34199
1 64924U 25157W   25311.98035705  .00060024  00000-0  14974-2 0  9993
2 64924  53.1577 197.0982 0001026  83.7270 276.3852 15.39648241 17359
Epoch: 2025-11-07T23:31Z
TLE epoch observation values (Epoch: 2025-11-07T23:31:42.849Z)
Latitude
0.00002°
Longitude
156.75314°
Altitude
447.974 km
Speed
7.645 km/s
True Right ascension
13h 08m 23s
True Declination
0° 00' 00"
Sunlit
Object was in daylight at epoch
Visualization orbit readout
Latitude
Unknown
Longitude
Unknown
Altitude
Unknown
Speed
Unknown
Apparent Right ascension
Unknown
Apparent Declination
Unknown
Sunlit
N/A
Visualization observer readout
Local Sidereal Time
04:41:58
Azimuth
Unknown
Elevation
Unknown
Doppler factor
Unknown
Orbital elements
Apogee altitude
448.107 km
Perigee altitude
446.706 km
Semi-major axis
6,825.544 km
Eccentricity
0.0001
Inclination
53.1577°
RAAN
197.0982°
Arg. of periapsis
83.727°
True anomaly
276.37352°
Mean anomaly
276.3852°
Eccentric anomaly
276.37936°
Mean motion
3.84891 °/min
Orbital period
93.53 mins
BSTAR
0.0014974
Loading maneuver chart data...
Computing Atmospheric mass density...
Loading historical data...
Loading historical data...
Loading historical data...
Loading historical data...
Loading historical data...
Loading historical data...
Loading historical data...

Documentation

Showing up to 5 results
|